星链-35660(STARLINK-35660)

导读

STARLINK-35660是美国SpaceX星链星座的一员,于2025年12月10日发射入轨,属于低轨互联网通信卫星。星链项目旨在构建全球卫星互联网,为全球提供高速宽带服务,尤其覆盖地面网络难以普及的偏远地区,该卫星的入轨进一步扩充了星链星座的服务规模与覆盖能力。

基本信息
目录编号:
67003
目录名称:
STARLINK-35660
国际标识:
2025-293A
轨道中心:
EARTH
卫星名称:
星链-35660
卫星全名:
星链-35660(STARLINK-35660)
卫星状态:
在轨 (已飞行185 天)
发射日期:
2025-12-10 UTC
国别 :
美国 (US)
星等 :
--
轨道信息
数据来源 国际轨道数据 AOE轨道数据
星历时间 2026-06-12T15:03:08+0800
1天前
查看轨道信息
2026-06-12T01:00:00+0800
1天前
查看轨道信息
半长轴 6950.174km 6950.212km
偏心率 0.0004032 0.0004374
轨道倾角 70.001° 69.999°
近地点辐角 268.568° 275.670°
升交点赤经 216.124° 217.598°
平近点角 91.502° 167.071°
近地点 569.234km 569.034km
远地点 574.84km 575.116km
周期 96.107分钟 96.107分钟
每日圈数 14.983362 14.983239
详细信息
固有亮度:
5
最大亮度:
2.5
卫星平台:
Starlink V1.0
覆盖范围:
全球
运营商:
太空探索技术公司
运营商所在国:
美国
制造商(研发单位):
太空探索技术公司
制造商所在国:
美国
使用方式:
暂无
卫星简介
Starlink 计划是 SpaceX 推出的全球卫星互联网项目,通过发射低轨道卫星,为全球尤其是偏远地区提供高速、低延迟的互联网服务。自 2019 年起,Starlink 已部署数千颗卫星,旨在缩小全球数字鸿沟,推动互联网普及。该项目还为军事、航空等行业提供通信支持,带来广泛经济效益。
2D轨道图
3D轨道图
轨道高度分析图
轨道倾角分析图
轨道综合分析图
查看轨道综合分析图